Flag for Austria Weather past 2 weeks in Klagenfurt, Carinthia, Austria

Now
36 °F

Clear.


Feels Like: 36 °F
Forecast: 39 / 60 °F
Wind: 2 mph from North

Location: Klagenfurt-Flughafen

Current Time: Mar 29, 2015 at 5:53:34 AM

Latest Report: Mar 29, 2015 at 4:50 AM


Visibility: 10 mi

Pressure: 29.95 "Hg

Humidity: 81%

Dew point: 30 °F

Location of KlagenfurtLocation

Historic Weather in Klagenfurt — Graph

°F

Klagenfurt temperature yesterday

Maximum temperature yesterday: 57 °F (at 2:50 PM)
Minimum temperature yesterday: 32 °F (at 5:20 AM)
Average temperature yesterday: 45 °F

Past Weeks' High & Low Weather Summary

 TemperatureHumidityPressure
High61 °F (Mar 24, 2:20 PM)100% (Mar 17, 11:50 PM)30.48 "Hg (Mar 17, 11:50 PM)
Low27 °F (Mar 14, 5:50 AM)27% (Mar 28, 4:50 PM)29.68 "Hg (Mar 25, 3:20 PM)
Average44 °F73%30.09 "Hg
* Reported Mar 14 3:20 AM — Mar 29 4:20 AM, Klagenfurt, Weather by CustomWeather, © 2015

Note: Actual official high and low records may vary slightly from our data, if they occured in-between our weather recording intervals... More about our weather records

Advertising

Klagenfurt weather history for previous 24 hours

 ConditionsComfort  
Time TempWeatherWind HumidityBarometerVisibility
4:20 AM
Sun, Mar 29
36 °FClear.2 mph81%29.95 "Hg10 mi
3:50 AM36 °FClear.1 mph81%29.98 "Hg10 mi
3:20 AM36 °FClear.1 mph81%29.98 "Hg10 mi
1:50 AM36 °FClear.5 mph81%29.98 "Hg10 mi
1:20 AM36 °FPassing clouds.3 mph81%29.98 "HgN/A
12:50 AM36 °FClear.3 mph81%29.98 "Hg10 mi
12:20 AM36 °FClear.2 mph81%29.98 "Hg10 mi
11:50 PM
Sat, Mar 28
37 °FClear.1 mph75%30.01 "Hg10 mi
11:20 PM37 °FClear.7 mph75%30.01 "Hg10 mi
10:50 PM37 °FClear.6 mph75%30.01 "Hg10 mi
10:20 PM39 °FClear.3 mph70%30.01 "Hg10 mi
9:50 PM41 °FClear.5 mph66%30.01 "Hg10 mi
9:20 PM41 °FClear.2 mph66%30.01 "Hg10 mi
8:50 PM43 °FPassing clouds.5 mph61%30.01 "HgN/A
8:20 PM48 °FPassing clouds.5 mph43%30.01 "HgN/A
7:50 PM48 °FPassing clouds.3 mph43%30.01 "HgN/A
7:20 PM50 °FClear.3 mph43%29.98 "Hg10 mi
6:50 PM52 °FClear.6 mph38%29.98 "Hg10 mi
6:20 PM54 °FCool.6 mph33%29.98 "HgN/A
5:50 PM55 °FSunny.6 mph31%29.95 "HgN/A
5:20 PM55 °FSunny.6 mph31%29.95 "HgN/A
4:50 PM57 °FSunny.2 mph27%29.95 "Hg10 mi
4:20 PM57 °FPassing clouds.5 mph31%29.95 "HgN/A
3:50 PM57 °FPassing clouds.7 mph31%29.95 "HgN/A
3:20 PM57 °FPassing clouds.8 mph29%29.98 "HgN/A
2:50 PM57 °FPassing clouds.7 mph31%29.98 "HgN/A
2:20 PM55 °FPassing clouds.9 mph31%29.98 "HgN/A
1:50 PM55 °FPassing clouds.6 mph31%30.01 "HgN/A
1:20 PM55 °FPassing clouds.5 mph36%30.01 "HgN/A
12:50 PM55 °FPassing clouds.5 mph36%30.01 "HgN/A
12:20 PM54 °FPassing clouds.8 mph38%30.04 "HgN/A
11:50 AM54 °FPassing clouds.6 mph38%30.04 "HgN/A
11:20 AM54 °FPassing clouds.6 mph41%30.04 "HgN/A
10:50 AM52 °FPassing clouds.3 mph44%30.04 "HgN/A
10:20 AM50 °FPassing clouds.5 mph40%30.07 "HgN/A
9:50 AM50 °FPassing clouds.2 mph43%30.07 "HgN/A
9:20 AM48 °FPassing clouds.2 mph62%30.07 "HgN/A
8:50 AM45 °FPassing clouds.1 mph66%30.07 "HgN/A
8:20 AM43 °FPassing clouds.2 mph76%30.09 "HgN/A
7:50 AM37 °FPassing clouds.1 mph87%30.09 "HgN/A
7:20 AM36 °FPassing clouds.3 mph93%30.07 "HgN/A
6:50 AM34 °FPassing clouds.3 mph93%30.07 "HgN/A
6:20 AM32 °FPassing clouds.3 mph93%30.07 "HgN/A
5:50 AM32 °FPassing clouds.3 mph100%30.07 "HgN/A
5:20 AM32 °FPassing clouds.2 mph100%30.07 "HgN/A
Weather by CustomWeather, © 2015

See weather overviewHow to use our weather pages